DeLand, FL

12:04 AM EST on December 10, 2019 (GMT -0500)
De Land Municipal-Taylor

Weather History for KDED - November, 2019

Change the Weather History Date:

Saturday, November 16, 2019

  Actual Average Record
Temperature  
Mean Temperature 54 °F -  
Max Temperature 57 °F 78 °F 80 °F (2014)
Min Temperature 50 °F 52 °F 42 °F (2018)
Degree Days  
Heating Degree Days 12    
Growing Degree Days 4 (Base 50)    
Moisture  
Dew Point 49 °F    
Average Humidity 86    
Maximum Humidity 100    
Minimum Humidity 77    
Precipitation  
Precipitation 0.01 in - - ()
Sea Level Pressure  
Sea Level Pressure 29.90 in    
Wind  
Wind Speed 9 mph (WNW)    
Max Wind Speed 17 mph    
Max Gust Speed 22 mph    
Visibility 9 miles    
Events Rain    
Averages and records for this station are not official NWS values.
T = Trace of Precipitation, MM = Missing Value Source: NWS Daily Summary

Daily Weather History Graph

Daily Weather History Graph

Search for Another Location

Airport or City:

Astronomy

Nov. 16, 2019 Rise Set
Actual Time 6:49 AM EST 5:30 PM EST
Civil Twilight 6:24 AM EST 5:55 PM EST
Nautical Twilight 5:55 AM EST 6:24 PM EST
Astronomical Twilight 5:27 AM EST 6:52 PM EST
Moon 9:09 PM EST (11/16) 10:33 AM EST (11/16)
Length of Visible Light 11h 31m
Length of Day
10h 41m
Waning Gibbous, 82% of the Moon is Illuminated
Nov 16
Waning Gibbous
Nov 19
Last Quarter
Nov 26
New
Dec 4
First Quarter
Dec 12
Full

Hourly Weather History & Observations

Time (EST) Temp. Dew Point Humidity Pressure Visibility Wind Dir Wind Speed Gust Speed Precip Events Conditions
12:15 AM 55.4 °F - N/A% 29.91 in 3.0 mi WNW 6.9 mph - N/A   Light Drizzle
12:35 AM 55.4 °F - N/A% 29.90 in 5.0 mi West 4.6 mph - N/A   Haze
12:55 AM 55.4 °F - N/A% 29.90 in 10.0 mi WNW 6.9 mph - N/A   Overcast
1:15 AM 55.4 °F - N/A% 29.89 in 10.0 mi West 9.2 mph - N/A   Overcast
1:35 AM 53.6 °F - N/A% 29.89 in 3.5 mi West 3.5 mph - N/A Rain Light Rain
1:55 AM 53.6 °F - N/A% 29.89 in 10.0 mi WNW 6.9 mph - N/A   Overcast
2:15 AM 53.6 °F - N/A% 29.89 in 10.0 mi West 8.1 mph - N/A   Overcast
2:35 AM 53.6 °F - N/A% 29.89 in 10.0 mi West 6.9 mph - N/A   Overcast
3:15 AM 53.6 °F - N/A% 29.88 in 10.0 mi West 6.9 mph - N/A   Overcast
3:35 AM 53.6 °F - N/A% 29.87 in 10.0 mi West 5.8 mph - N/A   Overcast
3:55 AM 53.6 °F - N/A% 29.87 in 10.0 mi West 6.9 mph - N/A   Overcast
4:15 AM 53.6 °F - N/A% 29.87 in 10.0 mi West 10.4 mph - N/A   Overcast
4:35 AM 53.6 °F - N/A% 29.87 in 10.0 mi West 9.2 mph - N/A   Overcast
4:55 AM 53.6 °F 53.6 °F 100% 29.87 in 10.0 mi West 9.2 mph - N/A   Overcast
5:15 AM 53.6 °F 53.6 °F 100% 29.88 in 7.0 mi West 8.1 mph - N/A   Overcast
5:35 AM 53.6 °F - N/A% 29.88 in 7.0 mi West 6.9 mph - N/A   Haze
5:55 AM 53.6 °F - N/A% 29.88 in 7.0 mi West 6.9 mph - N/A   Haze
6:15 AM 53.6 °F - N/A% 29.89 in 4.0 mi West 8.1 mph - N/A   Drizzle
6:35 AM 53.6 °F - N/A% 29.89 in 10.0 mi West 5.8 mph - N/A   Overcast
6:55 AM 53.6 °F - N/A% 29.89 in 10.0 mi West 5.8 mph - 0.01 in   Overcast
7:15 AM 53.6 °F - N/A% 29.90 in 10.0 mi West 8.1 mph - N/A   Overcast
7:35 AM 53.6 °F - N/A% 29.90 in 10.0 mi WNW 8.1 mph - N/A   Overcast
7:55 AM 53.6 °F - N/A% 29.90 in 10.0 mi West 9.2 mph - N/A   Overcast
8:15 AM 53.6 °F 53.6 °F 100% 29.90 in 10.0 mi WNW 9.2 mph 18.4 mph N/A   Overcast
8:35 AM 55.4 °F 53.6 °F 94% 29.90 in 10.0 mi WNW 10.4 mph 17.3 mph N/A   Overcast
8:55 AM 55.4 °F 51.8 °F 88% 29.90 in 10.0 mi WNW 12.7 mph - N/A   Overcast
9:35 AM 57.2 °F 51.8 °F 82% 29.90 in 10.0 mi West 8.1 mph - N/A   Overcast
9:55 AM 55.4 °F 51.8 °F 88% 29.90 in 10.0 mi West 12.7 mph 17.3 mph N/A   Overcast
10:15 AM 55.4 °F 50.0 °F 82% 29.89 in 10.0 mi West 10.4 mph - N/A   Overcast
10:35 AM 57.2 °F 50.0 °F 77% 29.90 in 10.0 mi WNW 11.5 mph 19.6 mph N/A   Overcast
10:55 AM 55.4 °F 50.0 °F 82% 29.89 in 10.0 mi WNW 11.5 mph - N/A   Overcast
11:15 AM 55.4 °F 50.0 °F 82% 29.90 in 10.0 mi NW 11.5 mph 18.4 mph N/A   Overcast
11:35 AM 55.4 °F 50.0 °F 82% 29.90 in 10.0 mi NW 16.1 mph 20.7 mph N/A   Overcast
11:55 AM 55.4 °F 50.0 °F 82% 29.90 in 10.0 mi NW 13.8 mph - N/A   Overcast
12:15 PM 53.6 °F 50.0 °F 88% 29.89 in 7.0 mi WNW 13.8 mph 19.6 mph N/A   Overcast
12:35 PM 55.4 °F 50.0 °F 82% 29.90 in 10.0 mi WNW 15.0 mph 21.9 mph N/A   Overcast
12:55 PM 55.4 °F 50.0 °F 82% 29.89 in 10.0 mi WNW 9.2 mph 17.3 mph N/A   Overcast
1:15 PM 55.4 °F 50.0 °F 82% 29.88 in 10.0 mi NW 15.0 mph 20.7 mph N/A   Overcast
1:35 PM 55.4 °F 50.0 °F 82% 29.87 in 10.0 mi NW 9.2 mph - N/A   Overcast
1:55 PM 55.4 °F 50.0 °F 82% 29.87 in 10.0 mi NW 12.7 mph 17.3 mph N/A   Overcast
2:15 PM 53.6 °F 50.0 °F 88% 29.87 in 10.0 mi NW 11.5 mph - N/A   Overcast
2:35 PM 53.6 °F 48.2 °F 82% 29.87 in 10.0 mi NW 13.8 mph 19.6 mph N/A   Overcast
2:55 PM 53.6 °F 50.0 °F 88% 29.87 in 10.0 mi NW 13.8 mph 17.3 mph N/A   Overcast
3:15 PM 53.6 °F 48.2 °F 82% 29.86 in 10.0 mi WNW 11.5 mph 17.3 mph N/A   Overcast
3:35 PM 53.6 °F 48.2 °F 82% 29.87 in 10.0 mi NW 12.7 mph - N/A   Overcast
4:15 PM 53.6 °F 48.2 °F 82% 29.87 in 10.0 mi NW 11.5 mph - N/A   Overcast
4:35 PM 53.6 °F 48.2 °F 82% 29.88 in 10.0 mi NNW 11.5 mph - N/A   Overcast
4:55 PM 53.6 °F 48.2 °F 82% 29.89 in 10.0 mi NNW 12.7 mph - N/A   Overcast
5:15 PM 53.6 °F 48.2 °F 82% 29.89 in 10.0 mi NW 10.4 mph 19.6 mph N/A   Overcast
5:35 PM 53.6 °F 48.2 °F 82% 29.89 in 10.0 mi NW 10.4 mph - N/A   Overcast
5:55 PM 51.8 °F 48.2 °F 88% 29.90 in 3.5 mi NNW 11.5 mph 19.6 mph N/A   Overcast
6:15 PM 51.8 °F 50.0 °F 94% 29.91 in 7.0 mi NNW 10.4 mph - N/A   Light Drizzle
6:35 PM 51.8 °F 48.2 °F 88% 29.92 in 10.0 mi North 11.5 mph - N/A   Overcast
6:55 PM 51.8 °F 46.4 °F 82% 29.93 in 10.0 mi NNW 12.7 mph - N/A   Overcast
7:15 PM 51.8 °F 46.4 °F 82% 29.93 in 10.0 mi North 17.3 mph - N/A   Overcast
7:35 PM 51.8 °F 46.4 °F 82% 29.93 in 10.0 mi NW 12.7 mph - N/A   Overcast
7:55 PM 51.8 °F 46.4 °F 82% 29.93 in 10.0 mi NNW 10.4 mph - N/A   Overcast
8:15 PM 50.0 °F 46.4 °F 87% 29.94 in 10.0 mi NW 10.4 mph - N/A   Overcast
8:35 PM 50.0 °F 46.4 °F 87% 29.94 in 10.0 mi NNW 13.8 mph - N/A   Overcast
8:55 PM 50.0 °F 46.4 °F 87% 29.95 in 10.0 mi NW 11.5 mph - N/A   Overcast
9:15 PM 51.8 °F 46.4 °F 82% 29.95 in 10.0 mi NW 12.7 mph - N/A   Overcast
9:35 PM 51.8 °F 46.4 °F 82% 29.95 in 10.0 mi NW 9.2 mph - N/A   Overcast
9:55 PM 51.8 °F 46.4 °F 82% 29.95 in 10.0 mi WNW 9.2 mph - N/A   Overcast
10:15 PM 51.8 °F 46.4 °F 82% 29.94 in 10.0 mi NW 10.4 mph - N/A   Overcast
10:35 PM 50.0 °F 46.4 °F 87% 29.94 in 10.0 mi NW 11.5 mph - N/A   Overcast
10:55 PM 50.0 °F 46.4 °F 87% 29.94 in 7.0 mi NW 11.5 mph - N/A   Overcast
11:15 PM 50.0 °F 48.2 °F 94% 29.94 in 5.0 mi NW 10.4 mph 16.1 mph N/A   Overcast
11:35 PM 50.0 °F 48.2 °F 94% 29.93 in 7.0 mi NW 9.2 mph - N/A   Overcast
11:55 PM 50.0 °F 48.2 °F 94% 29.93 in 5.0 mi WNW 10.4 mph - N/A   Light Drizzle